Change the Weather History Date:

Wednesday, February 6, 2013

  Actual Average Record
Temperature  
Mean Temperature 50 °F -  
Max Temperature 65 °F 53 °F 77 °F (2008)
Min Temperature 34 °F 34 °F 17 °F (2007)
Degree Days  
Heating Degree Days 16    
Moisture  
Dew Point 32 °F    
Average Humidity 56    
Maximum Humidity 99    
Minimum Humidity 22    
Precipitation  
Precipitation 0.00 in - - ()
Sea Level Pressure  
Sea Level Pressure 30.12 in    
Wind  
Wind Speed 2 mph (North)    
Max Wind Speed 8 mph    
Max Gust Speed -    
Visibility 10 miles    
Events Rain    
Averages and records for this station are not official NWS values.
T = Trace of Precipitation, MM = Missing Value Source: NWS Daily Summary

Daily Weather History Graph

Daily Weather History Graph

Search for Another Location

Airport or City:

Trip Planner

Search our weather history database for the weather conditions in past years. The results will help you decide how hot, cold, wet, or windy it might be!

Date:

Astronomy

Feb. 06, 2013 Rise Set
Actual Time 7:10 AM EST 5:49 PM EST
Civil Twilight 6:44 AM EST 6:16 PM EST
Nautical Twilight 6:14 AM EST 6:46 PM EST
Astronomical Twilight 5:44 AM EST 7:15 PM EST
Moon 3:48 AM EST (2/6) 2:10 PM EST (2/6)
Length of Visible Light 11h 31m
Length of Day
10h 39m
Waning Crescent, 17% of the Moon is Illuminated
Feb 6
Waning Crescent
Feb 10
New
Feb 17
First Quarter
Feb 25
Full
Mar 4
Last Quarter

Hourly Weather History & Observations

Time (EST) Temp. Windchill Dew Point Humidity Pressure Visibility Wind Dir Wind Speed Gust Speed Precip Events Conditions
12:55 AM 43.7 °F - 40.6 °F 89% 29.99 in 10.0 mi Calm Calm - N/A   Clear
1:55 AM 40.8 °F - 39.9 °F 97% 29.99 in 10.0 mi Calm Calm - N/A   Clear
2:55 AM 39.2 °F - 38.7 °F 98% 30.00 in 9.0 mi Calm Calm - N/A   Clear
3:55 AM 37.8 °F - 37.2 °F 98% 30.01 in 10.0 mi Calm Calm - N/A   Clear
4:55 AM 36.5 °F - 36.1 °F 99% 30.02 in 10.0 mi Calm Calm - N/A   Clear
5:55 AM 34.9 °F - 34.3 °F 98% 30.04 in 9.0 mi Calm Calm - N/A   Clear
6:55 AM 34.2 °F - 33.6 °F 98% 30.07 in 10.0 mi Calm Calm - N/A   Clear
7:55 AM 34.2 °F - 33.6 °F 98% 30.11 in 8.0 mi Calm Calm - N/A   Clear
8:55 AM 43.5 °F 41.9 °F 42.8 °F 97% 30.14 in 10.0 mi NNW 3.5 mph - N/A   Clear
9:55 AM 54.3 °F - 36.9 °F 52% 30.16 in 10.0 mi North 8.1 mph - N/A   Clear
10:55 AM 58.3 °F - 34.2 °F 40% 30.16 in 10.0 mi NE 5.8 mph - N/A   Clear
11:55 AM 61.0 °F - 32.7 °F 35% 30.16 in 10.0 mi WNW 4.6 mph - N/A   Clear
12:08 PM 60.8 °F - 32.0 °F 34% 30.15 in 10.0 mi Calm Calm - N/A   Light Drizzle
12:55 PM 61.9 °F - 31.8 °F 32% 30.14 in 10.0 mi Calm Calm - 0.00 in   Clear
1:03 PM 62.6 °F - 32.0 °F 32% 30.13 in 10.0 mi Variable 3.5 mph - N/A   Clear
1:18 PM 62.6 °F - 32.0 °F 32% 30.13 in 10.0 mi Variable 5.8 mph - N/A Rain Light Rain
1:55 PM 63.7 °F - 31.1 °F 29% 30.12 in 10.0 mi Variable 4.6 mph - 0.00 in   Clear
2:55 PM 64.9 °F - 29.7 °F 27% 30.12 in 10.0 mi WSW 5.8 mph - N/A   Clear
3:55 PM 65.7 °F - 27.0 °F 23% 30.12 in 10.0 mi WSW 5.8 mph - N/A   Clear
4:55 PM 65.1 °F - 25.2 °F 22% 30.13 in 10.0 mi West 3.5 mph - N/A   Clear
5:55 PM 59.0 °F - 25.7 °F 28% 30.15 in 10.0 mi Calm Calm - N/A   Clear
6:55 PM 54.0 °F - 27.7 °F 36% 30.17 in 10.0 mi NNE 3.5 mph - N/A   Clear
7:55 PM 51.3 °F - 26.1 °F 38% 30.21 in 10.0 mi Calm Calm - N/A   Clear
8:55 PM 49.5 °F - 25.9 °F 40% 30.22 in 10.0 mi NE 4.6 mph - N/A   Clear
9:55 PM 49.5 °F - 25.5 °F 39% 30.23 in 10.0 mi NE 8.1 mph - N/A   Clear
10:55 PM 47.5 °F - 26.2 °F 44% 30.23 in 10.0 mi ENE 5.8 mph - N/A   Clear
11:55 PM 45.5 °F 44.2 °F 28.8 °F 52% 30.27 in 10.0 mi NE 3.5 mph - N/A   Clear